カタログに戻る

COSMOS 2498

運用中ナビゲーションPO
NORAD 39763·PAYLOAD·🇷🇺 Russia

打ち上げ May 23, 2014 から Plesetsk Cosmodrome

Loading…

次のパス (今後24時間)

TLE

最新Source: Space-Track

元期: Sep 14, 2026, 21:13 UTC

1 39763U 14028C   26257.88405597  .00000016  00000-0  48645-4 0  9999
2 39763  82.4444  52.6992 0020569 237.4532 122.4561 12.42983076558693

AllMySatでCOSMOS 2498をリアルタイム追跡

Download on the App Store